Location: Spaichingen
(48.0400°N, 8.4300°E)
Time: 13:32:56
(UTC+02:00)

Envisat - Visible Passes

Search period start: 23 September 2020 00:00
Search period end: 03 October 2020 00:00
Orbit: 764 x 766 km, 98.1° (Epoch: 23 September)

Date Brightness Start Highest point End Pass type
(mag) Time Alt. Az. Time Alt. Az. Time Alt. Az.
24 Sep 6.3 06:09:00 10° ENE 06:11:32 14° E 06:14:04 10° ESE visible
25 Sep 6.3 20:09:31 10° WSW 20:12:08 14° W 20:14:47 10° NW visible
26 Sep 5.9 06:33:18 10° NE 06:37:18 23° E 06:41:16 10° SE visible
27 Sep 6.6 05:58:51 10° ENE 06:00:00 11° E 06:01:10 10° E visible
28 Sep 6.1 19:57:17 10° SW 20:00:38 18° W 20:04:00 10° NW visible
29 Sep 6.1 06:22:18 10° NE 06:25:49 18° E 06:29:18 10° SE visible
01 Oct 5.3 06:47:02 10° NNE 06:51:31 30° E 06:55:57 10° SSE visible
01 Oct 6.0 19:45:17 10° SW 19:49:09 22° W 19:53:02 10° NW visible
02 Oct 6.2 06:11:28 10° NE 06:14:18 15° E 06:17:08 10° ESE visible
